Stations météo

réclame
Mon MeteoGroup
Blois, France (7245): Température de l'air & dewpoint: 14.01.2019 12:00:00 - 20.01.2019 12:00:00 (CET)Blois, France (7245): Température de l'air 5cm: 14.01.2019 12:00:00 - 20.01.2019 12:00:00 (CET)Blois, France (7245): Température de l'air -20cm & Température de l'air -100cm: 14.01.2019 12:00:00 - 20.01.2019 12:00:00 (CET)Blois, France (7245): Vitesse du vent & gusts: 14.01.2019 12:00:00 - 20.01.2019 12:00:00 (CET)Blois, France (7245): Direction du vent: 14.01.2019 12:00:00 - 20.01.2019 12:00:00 (CET)Blois, France (7245): reduced air pressure: 14.01.2019 12:00:00 - 20.01.2019 12:00:00 (CET)Blois, France (7245): visibility: 14.01.2019 12:00:00 - 20.01.2019 12:00:00 (CET)Blois, France (7245): Ensoleillement: 14.01.2019 12:00:00 - 20.01.2019 12:00:00 (CET)Blois, France (7245): Quantités de précipitations: 14.01.2019 12:00:00 - 20.01.2019 12:00:00 (CET)
Date & Time tt [°C] td [°C] tt 5cm [°C] tt -20cm [°C] tt -100cm [°C] ff [km/h] ff [knt] fx [km/h] fx [knt] dd ppp [hPa] vv [km] sd [min] rr [mm]
20.01.2019 12:00:00 5,1 4,4 5,0 5,0 8,3 14 7 22 12 N 1013,9 12 0 0,0
20.01.2019 11:00:00 4,4 4,3 4,8 5,0 8,3 16 9 24 13 N 1013,4 4,5 0 0,0
20.01.2019 10:00:00 4,8 4,8 4,7 4,9 8,3 7 4 12 6 N 1012,3 8 0 0,0
20.01.2019 09:00:00 4,8 4,8 4,5 5,0 8,3 4 2 6 3 NNW 1011,5 3,2 0 0,4
20.01.2019 08:00:00 4,6 4,6 4,3 4,9 8,3 5 3 6 3 WNW 1010,8 0,5 0 0,4
20.01.2019 07:00:00 5,1 5,1 4,3 4,9 8,3 5 3 6 3 NW 1010,1 2,9 0 0,8
20.01.2019 06:00:00 4,8 4,7 3,9 4,9 8,3 0 0 5 3 N 1009,7 0,4 0 0,2
20.01.2019 05:00:00 4,9 4,8 4,5 4,8 8,3 3 2 5 3 W 1009,6 1,3 0 0,8
20.01.2019 04:00:00 5,2 5,2 4,4 4,8 8,4 4 2 5 3 SSW 1009,5 4,6 0 0,0
20.01.2019 03:00:00 5,1 5,0 3,5 4,8 8,4 4 2 5 3 SSW 1009,4 3,7 0 0,0
20.01.2019 02:00:00 5,2 5,1 4,4 4,8 8,4 4 2 8 5 SSW 1009,1 6 0 0,0
20.01.2019 01:00:00 5,0 4,9 4,3 4,7 8,4 4 2 10 5 S 1009,2 6 0 0,0
20.01.2019 00:00:00 5,0 4,9 3,4 4,7 8,4 8 5 11 6 SSW 1009,2 14 0 0,0
19.01.2019 23:00:00 5,4 5,1 4,8 4,6 8,4 8 5 13 7 S 1008,9 20 0 0,0
19.01.2019 22:00:00 5,4 5,3 4,9 4,5 8,4 5 3 10 6 S 1008,9 3,1 0 1,6
19.01.2019 21:00:00 5,8 5,7 5,3 4,5 8,4 7 4 15 8 S 1008,7 5 0 1,8
19.01.2019 20:00:00 6,0 5,7 5,4 4,4 8,4 9 5 16 9 SSW 1008,7 6 0 2,0
19.01.2019 19:00:00 6,0 5,6 5,5 4,3 8,4 10 5 19 10 SSE 1008,4 14 0 0,0
19.01.2019 18:00:00 6,1 5,8 5,2 4,2 8,4 14 8 18 10 SSE 1008,2 14 0 0,0
19.01.2019 17:00:00 6,0 5,6 5,8 4,1 8,4 9 5 16 8 SE 1008,3 8 3 0,0
19.01.2019 16:00:00 6,1 5,7 5,0 4,0 8,4 12 6 18 10 SSE 1008,5 9 5 0,0
19.01.2019 15:00:00 5,0 4,9 4,7 4,0 8,4 11 6 17 9 SSE 1009,0 4,9 0 0,0
19.01.2019 14:00:00 4,5 4,4 4,2 3,9 8,4 9 5 22 12 SSE 1009,6 4,4 0 0,0
19.01.2019 13:00:00 3,5 3,4 3,2 3,9 8,4 10 5 16 9 SSE 1010,6 3,7 0 0,0
19.01.2019 12:00:00 2,6 2,5 1,4 3,9 8,4 12 6 19 10 SSE 1011,3 3,0 0 0,0
19.01.2019 11:00:00 1,4 1,3 0,1 3,9 8,4 10 6 16 8 SSE 1011,7 1,6 0 0,0
19.01.2019 10:00:00 0,5 0,4 0,1 4,0 8,4 13 7 21 11 SE 1011,5 3,2 0 0,0
19.01.2019 09:00:00 0,3 0,2 0,0 4,0 8,5 14 7 21 12 SE 1011,5 3,7 0 0,4
19.01.2019 08:00:00 -0,1 -0,2 -0,3 4,1 8,5 15 8 23 13 ESE 1011,6 1,9 0 1,8
19.01.2019 07:00:00 -0,7 -1,0 -1,1 4,1 8,4 18 10 23 12 ESE 1012,0 1,3 0 0,2
19.01.2019 06:00:00 -0,8 -1,6 -1,2 4,2 8,4 12 7 18 10 E 1012,4 9 0 0,0
19.01.2019 05:00:00 -1,2 -2,2 -2,0 4,3 8,4 10 5 18 10 SE 1013,3 13 0 0,0
19.01.2019 04:00:00 -1,6 -2,6 -2,3 4,4 8,4 13 7 17 9 ESE 1014,0 12 0 0,0
19.01.2019 03:00:00 -1,7 -2,7 -2,6 4,4 8,4 10 6 13 7 ESE 1014,7 12 0 0,0
19.01.2019 02:00:00 -1,9 -2,9 -2,6 4,5 8,4 6 4 14 8 ESE 1015,0 13 0 0,0
19.01.2019 01:00:00 -1,6 -2,7 -2,3 4,6 8,4 11 6 16 9 ESE 1015,6 14 0 0,0
19.01.2019 00:00:00 -1,3 -2,6 -2,1 4,7 8,4 14 7 16 8 E 1016,1 17 0 0,0
18.01.2019 23:00:00 -1,0 -2,4 -2,0 4,8 8,4 11 6 16 9 ESE 1016,1 17 0 0,0
18.01.2019 22:00:00 -0,6 -2,3 -1,8 4,9 8,4 11 6 18 10 ESE 1016,5 20 0 0,0
18.01.2019 21:00:00 -0,1 -2,3 -3,1 4,9 8,5 14 8 18 10 ESE 1016,6 20 0 0,0
18.01.2019 20:00:00 -0,3 -2,8 -4,2 5,0 8,4 5 3 9 5 SE 1017,5 20 0 0,0
18.01.2019 19:00:00 0,2 -2,3 -1,5 5,0 8,4 9 5 14 8 ESE 1017,1 20 0 0,0
18.01.2019 18:00:00 1,2 -2,0 -1,0 4,9 8,4 6 3 15 8 SE 1017,7 20 7 0,0
18.01.2019 17:00:00 3,7 -2,1 4,1 4,9 8,4 14 7 19 10 SE 1017,6 20 53 0,0
18.01.2019 16:00:00 4,7 -2,2 5,4 4,8 8,5 9 5 18 10 SE 1018,0 20 17 0,0
18.01.2019 15:00:00 4,8 -0,6 7,1 4,8 8,5 11 6 18 10 E 1018,3 20 58 0,0
18.01.2019 14:00:00 4,4 -1,2 6,7 4,7 8,4 12 7 19 10 ESE 1018,8 20 60 0,0
18.01.2019 13:00:00 3,5 -0,3 4,4 4,7 8,5 10 5 15 8 ESE 1019,6 20 60 0,0
18.01.2019 12:00:00 1,8 -0,6 0,9 4,8 8,5 10 5 13 7 E 1020,6 20 29 0,0
18.01.2019 11:00:00 0,1 -1,5 -0,8 4,9 8,5 6 3 9 5 ESE 1021,0 17 26 0,0
18.01.2019 10:00:00 -0,7 -2,0 -2,8 5,0 8,5 3 1 5 3 ESE 1020,7 19 45 0,0
18.01.2019 09:00:00 -2,1 -3,2 -3,5 5,1 8,5 0 0 6 3 N 1020,8 17 0 0,0
18.01.2019 08:00:00 -1,4 -2,8 -3,7 5,2 8,5 4 2 13 7 E 1020,3 20 0 0,0
18.01.2019 07:00:00 -1,5 -2,3 -3,7 5,3 8,5 7 4 9 5 NNE 1020,4 20 0 0,0
18.01.2019 06:00:00 -1,9 -2,5 -4,6 5,4 8,5 0 0 4 2 N 1020,7 13 0 0,0
18.01.2019 05:00:00 -1,8 -2,5 -3,9 5,5 8,4 0 0 3 2 N 1020,8 20 0 0,0
18.01.2019 04:00:00 -1,7 -2,1 -2,9 5,6 8,5 0 0 9 5 N 1021,0 19 0 0,0
18.01.2019 03:00:00 -1,8 -2,4 -4,4 5,8 8,5 4 2 6 3 W 1021,2 17 0 0,0
18.01.2019 02:00:00 -1,8 -2,2 -4,3 5,9 8,5 0 0 6 3 N 1021,2 16 0 0,0
18.01.2019 01:00:00 -1,1 -1,8 -3,7 6,0 8,5 3 2 5 3 NW 1021,1 18 0 0,0
18.01.2019 00:00:00 -0,7 -1,3 -3,0 6,1 8,5 4 2 6 4 W 1020,9 20 0 0,0
17.01.2019 23:00:00 0,5 -1,4 -2,8 6,2 8,5 0 0 10 5 N 1020,5 20 0 0,0
17.01.2019 22:00:00 1,9 -0,8 -0,4 6,2 8,5 6 3 18 10 NNW 1019,7 20 0 0,0
17.01.2019 21:00:00 3,5 0,9 1,9 6,2 8,5 13 7 20 11 NW 1019,1 20 0 0,0
17.01.2019 20:00:00 4,6 2,1 3,3 6,3 8,5 13 7 19 10 NW 1018,2 20 0 0,0
17.01.2019 19:00:00 4,7 2,2 3,0 6,2 8,5 4 2 28 15 NNW 1017,4 20 0 0,0
17.01.2019 18:00:00 4,9 3,1 2,9 6,2 8,5 14 7 41 22 WNW 1016,3 20 0 0,8
17.01.2019 17:00:00 6,7 3,7 6,4 6,1 8,5 16 9 34 18 W 1015,5 20 7 0,0
17.01.2019 16:00:00 7,6 3,6 6,3 6,1 8,5 22 12 36 19 W 1014,9 20 12 0,0
17.01.2019 15:00:00 7,6 2,7 8,0 5,9 8,5 28 15 41 22 W 1014,5 20 29 0,0
17.01.2019 14:00:00 7,9 3,4 8,7 5,9 8,5 27 15 36 20 W 1014,3 20 56 0,0
17.01.2019 13:00:00 7,4 3,8 8,1 5,9 8,6 26 14 37 20 W 1014,6 20 60 0,0
17.01.2019 12:00:00 6,9 3,7 7,4 5,8 8,5 24 13 39 21 W 1014,6 20 60 0,0
17.01.2019 11:00:00 5,8 3,5 5,9 5,9 8,5 28 15 40 22 W 1014,1 20 53 0,0
17.01.2019 10:00:00 4,8 3,1 3,5 5,9 8,5 25 14 36 19 W 1013,4 20 55 0,0
17.01.2019 09:00:00 3,7 2,5 2,4 6,0 8,5 21 12 35 19 WSW 1012,4 20 0 0,0
17.01.2019 08:00:00 3,5 2,6 2,8 6,0 8,5 20 11 28 15 WSW 1011,5 20 0 0,0
17.01.2019 07:00:00 4,2 3,0 3,4 6,1 8,6 22 12 33 18 WSW 1011,0 20 0 0,0
17.01.2019 06:00:00 4,4 3,5 3,5 6,1 8,5 21 11 31 17 WSW 1010,6 20 0 0,0
17.01.2019 05:00:00 4,6 3,9 3,6 6,1 8,6 18 10 29 16 WSW 1010,3 20 0 0,0
17.01.2019 04:00:00 5,8 4,8 4,9 6,1 8,5 22 12 35 19 W 1010,6 20 0 0,0
17.01.2019 03:00:00 6,9 5,8 6,0 6,0 8,5 24 13 34 19 WSW 1010,1 18 0 0,0
17.01.2019 02:00:00 6,7 6,3 6,2 6,0 8,5 18 10 35 19 SW 1009,4 8 0 0,6
17.01.2019 01:00:00 6,9 6,2 5,8 6,0 8,5 23 13 36 19 SW 1009,4 3,8 0 0,2
17.01.2019 00:00:00 6,3 5,3 5,4 6,0 8,5 22 12 31 17 SSW 1009,6 14 0 0,0
16.01.2019 23:00:00 6,0 4,8 5,0 5,9 8,5 21 11 35 19 S 1010,2 14 0 0,2
16.01.2019 22:00:00 5,5 4,3 5,0 5,9 8,5 23 12 32 18 SSW 1010,6 12 0 0,0
16.01.2019 21:00:00 5,4 4,2 4,8 5,9 8,5 20 11 35 19 SSW 1010,9 15 0 0,0
16.01.2019 20:00:00 5,8 3,1 5,2 5,9 8,5 24 13 37 20 SSW 1011,1 20 0 0,0
16.01.2019 19:00:00 6,0 2,6 5,4 5,9 8,5 25 13 34 19 SSW 1011,3 20 0 0,0
16.01.2019 18:00:00 5,9 2,2 5,5 5,8 8,5 18 10 27 14 SSW 1011,3 20 0 0,0
16.01.2019 17:00:00 6,1 2,0 5,8 5,7 8,5 16 8 26 14 SSW 1011,4 20 0 0,0
16.01.2019 16:00:00 6,6 2,1 6,7 5,7 8,5 24 13 33 18 SW 1011,9 20 12 0,0
16.01.2019 15:00:00 6,8 2,3 7,7 5,6 8,5 19 11 26 14 SW 1012,1 20 45 0,0
16.01.2019 14:00:00 6,9 2,2 8,2 5,5 8,5 18 10 25 13 WSW 1012,6 20 60 0,0
16.01.2019 13:00:00 5,8 1,9 6,5 5,5 8,5 15 8 21 11 SSW 1013,2 19 60 0,0
16.01.2019 12:00:00 4,0 1,4 4,9 5,6 8,5 11 6 15 8 SSW 1014,5 18 60 0,0
16.01.2019 11:00:00 2,2 0,6 3,4 5,7 8,6 10 5 15 8 SSW 1015,0 15 53 0,0
16.01.2019 10:00:00 0,2 -0,7 -3,7 5,8 8,5 5 3 7 4 S 1015,5 11 48 0,0
16.01.2019 09:00:00 -1,8 -2,1 -4,7 5,9 8,5 3 2 5 3 SSE 1015,4 4,3 0 0,0
16.01.2019 08:00:00 -1,4 -1,7 -5,0 6,1 8,5 4 2 6 3 ESE 1015,5 3,3 0 0,0
16.01.2019 07:00:00 -1,9 -2,5 -4,5 6,2 8,5 0 0 2 1 N 1015,8 1,1 0 0,0
16.01.2019 06:00:00 -1,0 -1,6 -4,1 6,3 8,5 3 1 6 3 E 1016,5 8 0 0,0
16.01.2019 05:00:00 -0,3 -0,9 -3,6 6,5 8,5 5 3 6 3 E 1017,2 10 0 0,0
16.01.2019 04:00:00 0,2 -0,7 -1,8 6,6 8,5 5 3 7 4 E 1017,8 8 0 0,0
16.01.2019 03:00:00 0,7 -0,3 -2,0 6,7 8,5 5 3 6 4 E 1018,6 10 0 0,0
16.01.2019 02:00:00 1,3 -0,2 -2,3 6,8 8,5 4 2 6 4 E 1019,1 17 0 0,0
16.01.2019 01:00:00 1,3 0,3 -2,0 6,9 8,5 4 2 6 3 E 1020,0 15 0 0,0
16.01.2019 00:00:00 2,2 0,7 -0,5 7,0 8,5 4 2 5 3 E 1020,8 19 0 0,0
15.01.2019 23:00:00 2,1 0,6 -0,6 7,1 8,5 0 0 5 3 N 1021,7 20 0 0,0
15.01.2019 22:00:00 3,1 0,7 0,1 7,1 8,5 0 0 5 3 N 1022,1 20 0 0,0
15.01.2019 21:00:00 5,3 1,8 3,8 7,2 8,5 4 2 8 4 ESE 1022,4 20 0 0,0
15.01.2019 20:00:00 5,7 2,2 4,7 7,1 8,5 3 2 10 6 SE 1022,8 20 0 0,0
15.01.2019 19:00:00 6,1 2,2 5,4 7,1 8,5 5 3 8 4 ENE 1023,0 20 0 0,0
15.01.2019 18:00:00 6,5 1,4 5,4 7,1 8,5 3 2 7 4 NNE 1023,2 20 0 0,0
15.01.2019 17:00:00 7,1 1,2 6,5 7,0 8,5 3 2 11 6 N 1023,4 20 0 0,0
15.01.2019 16:00:00 7,5 0,5 7,8 7,0 8,5 6 3 14 8 NW 1023,5 20 0 0,0
15.01.2019 15:00:00 7,6 0,8 8,6 6,9 8,5 10 5 19 10 WNW 1023,8 20 0 0,0
15.01.2019 14:00:00 7,8 0,5 8,9 6,9 8,5 11 6 19 11 WNW 1024,4 20 0 0,0
15.01.2019 13:00:00 7,9 1,7 8,9 6,8 8,5 10 6 20 11 W 1025,2 20 0 0,0
15.01.2019 12:00:00 7,4 3,1 8,0 6,8 8,5 10 6 16 9 WNW 1025,8 20 0 0,0
15.01.2019 11:00:00 6,8 3,0 6,1 6,8 8,5 8 4 13 7 NW 1026,0 19 0 0,0
15.01.2019 10:00:00 5,7 3,9 4,8 6,9 8,5 5 3 8 4 W 1026,0 19 0 0,0
15.01.2019 09:00:00 5,0 3,8 4,5 6,9 8,5 4 2 7 4 WNW 1025,9 17 0 0,0
15.01.2019 08:00:00 5,5 3,5 4,4 6,9 8,5 6 3 9 5 NW 1025,7 19 0 0,0
15.01.2019 07:00:00 5,0 3,5 4,1 6,9 8,5 5 3 8 4 WNW 1025,8 19 0 0,0
15.01.2019 06:00:00 5,2 3,5 4,5 7,0 8,5 3 1 7 4 WNW 1025,7 20 0 0,0
15.01.2019 05:00:00 5,5 3,5 4,5 7,0 8,5 4 2 6 4 WNW 1026,0 20 0 0,0
15.01.2019 04:00:00 5,4 3,4 4,5 7,1 8,5 3 2 8 4 W 1026,1 20 0 0,0
15.01.2019 03:00:00 5,5 3,2 4,6 7,1 8,5 0 0 6 3 N 1026,4 20 0 0,0
15.01.2019 02:00:00 6,0 2,8 4,9 7,1 8,4 6 3 11 6 WNW 1026,2 20 0 0,0
15.01.2019 01:00:00 5,8 3,0 4,9 7,1 8,4 2 1 8 4 WNW 1026,2 20 0 0,0
15.01.2019 00:00:00 6,9 1,4 5,6 7,1 8,4 3 2 15 8 NNW 1026,1 20 0 0,0
14.01.2019 23:00:00 6,4 3,2 5,6 7,2 8,5 8 5 14 8 NW 1025,8 20 0 0,0
14.01.2019 22:00:00 7,0 3,6 6,0 7,2 8,5 8 4 18 10 NW 1025,8 20 0 0,0
14.01.2019 21:00:00 6,7 3,8 6,0 7,2 8,4 13 7 16 9 WNW 1025,5 20 0 0,0
14.01.2019 20:00:00 6,9 4,2 6,1 7,2 8,5 9 5 17 9 WNW 1025,2 20 0 0,0
14.01.2019 19:00:00 6,9 4,4 6,4 7,2 8,5 11 6 17 9 WNW 1025,1 20 0 0,0
14.01.2019 18:00:00 7,7 4,3 7,0 7,2 8,5 9 5 15 8 WNW 1024,5 20 0 0,0
14.01.2019 17:00:00 8,2 3,8 7,7 7,2 8,5 11 6 20 11 NW 1024,2 20 0 0,0
14.01.2019 16:00:00 8,7 4,1 8,6 7,1 8,4 11 6 23 12 NW 1023,8 20 0 0,0
14.01.2019 15:00:00 9,0 4,2 9,1 7,1 8,5 13 7 29 16 WNW 1023,4 20 0 0,0
14.01.2019 14:00:00 9,2 2,7 9,3 7,0 8,4 19 11 28 15 NW 1023,3 20 0 0,0
14.01.2019 13:00:00 9,1 4,3 9,5 7,0 8,5 17 9 29 15 WNW 1023,1 20 0 0,0
14.01.2019 12:00:00 9,3 3,1 9,9 7,0 8,4 16 9 26 14 NW 1022,8 20 42 0,0

tt = Température de l'air
td = dewpoint
tt 5cm = Température de l'air 5cm
tt -20cm = Température de l'air -20cm
tt -100cm = Température de l'air -100cm
ff = Vitesse du vent
fx = gusts
dd = Direction du vent
ppp = reduced air pressure
vv = visibility
sd = Ensoleillement
rr = Quantités de précipitations

stations d'obs. à proximité